Погода в Старом Крещено

Россия / Республика Марий Эл     56°48′00″N   47°59′55″E
темп.,
°C
ветер,
м/с
пор.,
м/с
влажн.,
%
обл.,
%
осадки,
мм/ч
давл.,
гПа
погр.,
м
17 мая, пн
пн1700:00+15юз229087 0.3 101523
03:00+15ююв019522 1.9 101611
06:00+18ю1287100 0.6 1016136
09:00+23зсз235899 0.6 1017558
12:00+26сз23415 0.0 10171485
15:00+27с34435 0.0 10171589
18:00+23ссв356118 0.0 1017136
21:00+18всв22725 0.1 101829
18 мая, вт
вт1800:00+16всв347727 0.1 101852
03:00+15всв358461 0.3 101986
06:00+17в387818 0.0 1019224
09:00+23в45555 0.0 1019644
12:00+26в454868 0.0 10191112
15:00+26всв55485 0.0 10191091
18:00+22в49627 0.0 1019328
21:00+18в411675 0.1 1019228
19 мая, ср
ср1900:00+16в411715 0.0 1019212
03:00+14вюв3117421 0.0 1020203
06:00+17вюв4117179 0.0 1020360
09:00+22юв68525 0.0 1020892
12:00+25юв67404 0.0 10201405
15:00+25юв57375 0.0 10191461
18:00+22вюв49530 0.0 1019512
21:00+17вюв412690 0.0 1019257
20 мая, чт
чт2000:00+16вюв413671 0.0 1018319
03:00+14юв411741 0.0 1019243
06:00+16вюв49695 0.0 1019252
09:00+22юв69455 0.0 10181022
12:00+24юв7103412 0.0 10181576
15:00+24юв6937100 0.0 10171729
18:00+21юв4951100 0.0 1017503
21:00+15юв4116955 0.0 1017220
21 мая, пт
пт2100:00+14юв311697 0.0 1017189
03:00+13юв39715 0.0 1017161
06:00+15юв3967100 0.0 1017248
09:00+21ююв5847100 0.0 1016721
12:00+24ю68345 0.0 10152745
15:00+24ю68365 0.0 10142970
18:00+21ю5104850 0.0 1014654
21:00+15ююв399573 2.0 1014239